Location: Young's Pond
(41.2695°N, 72.7766°W)
Time: 01:43:26
(UTC-04:00)

CZ-4B R/B - Visible Passes

Search period start: 20 April 2014 00:00
Search period end: 30 April 2014 00:00
Orbit: 430 x 561 km, 97.5° (Epoch: 19 April)

Date Brightness Start Highest point End Pass type
(mag) Time Alt. Az. Time Alt. Az. Time Alt. Az.
20 Apr 4.8 23:20:22 11° NNW 23:20:22 11° NNW 23:20:34 10° NNW visible
21 Apr 4.5 22:59:01 13° N 22:59:01 13° N 22:59:27 10° N visible
22 Apr 4.3 22:37:39 13° NNE 22:37:39 13° NNE 22:38:03 10° N visible
23 Apr 4.3 22:16:14 10° NNE 22:16:14 10° NNE 22:16:15 10° NNE visible
24 Apr 4.8 23:29:22 12° NNW 23:29:22 12° NNW 23:29:37 10° NNW visible
25 Apr 4.4 23:07:53 15° N 23:07:53 15° N 23:08:29 10° N visible
26 Apr 4.2 22:46:22 15° N 22:46:22 15° N 22:47:04 10° N visible
27 Apr 4.1 22:24:49 12° NNE 22:24:49 12° NNE 22:25:17 10° NNE visible
28 Apr 4.7 23:37:48 12° NNW 23:37:48 12° NNW 23:38:07 10° NNW visible
29 Apr 4.3 23:16:11 16° NNW 23:16:11 16° NNW 23:16:57 10° NNW visible
